Lid_Strength_Index
-1 -1 -1 -1 -2 -2 -1 -1 -1 -1 -1 -1 -1 -1 -1 -1 -1 -1 1 -1 3 6 5 3 3 5 5 6 9 7 8 7 7 11 12 12 13 11 11 9 10 10 11 11 11 13 14 6 6 9 7 5 5 5
-1 -1 -1 -1 -1 -2 -2 -2 -1 -1 -1 -1 -1 -1 -1 -1 -1 -1 2 -1 -0 4 5 2 2 1 2 3 5 6 7 7 7 10 10 10 12 11 11 13 7 10 8 10 9 10 8 6 7 5 5 5 5 5
-1 -1 -1 -1 -1 -1 -1 -1 -1 -1 -1 -1 -1 -1 -1 -1 -1 -1 1 1 1 5 5 4 4 2 0 1 2 7 6 5 6 5 8 9 12 10 14 12 10 7 6 8 9 7 7 6 5 4 4 4 4 4
-1 -1 -1 -1 -1 -1 -1 -1 -1 -1 -1 -1 -1 -1 -1 -1 -0 -0 1 0 2 4 8 6 1 2 0 1 1 2 4 4 4 4 8 9 11 8 11 11 11 10 9 9 8 7 7 6 5 4 4 4 5 4
-0 -0 -0 -1 -1 -1 -1 -1 -1 -1 -1 -1 -0 -0 -0 -0 0 -0 1 0 -0 4 9 7 3 2 1 2 2 3 4 5 6 7 9 11 8 9 8 9 11 9 10 12 12 9 8 7 5 4 5 5 4 4
-0 -0 -0 -1 -1 -1 -1 -1 -1 -1 -0 -0 0 0 0 0 1 2 5 0 -0 1 6 9 3 3 3 2 3 3 4 5 5 7 9 8 6 8 11 13 9 8 7 6 9 7 7 5 4 4 4 4 4 4
0 -0 -0 -0 -0 -1 -1 -1 -1 -1 -1 -0 -0 0 0 1 1 4 5 2 1 1 6 9 8 4 3 3 4 3 4 5 6 9 10 8 8 8 11 13 9 8 7 6 6 6 8 6 6 5 4 4 5 4
0 0 0 -0 -0 -0 -0 -0 -0 -0 -0 -0 -0 -0 0 0 1 3 1 1 1 4 6 10 9 7 3 6 6 4 6 6 7 8 8 8 8 8 12 9 8 7 6 7 6 5 6 5 4 5 4 5 5 5
1 1 0 0 0 -0 0 -0 -0 -0 0 -0 0 -0 1 2 4 2 1 2 3 6 10 9 12 12 5 7 6 5 5 9 6 9 9 9 10 12 10 9 8 7 7 7 5 5 5 5 5 4 4 5 6 7
1 1 1 1 1 0 0 0 0 0 1 1 0 3 5 2 1 1 4 6 7 7 8 10 7 10 7 6 7 7 6 10 12 10 7 10 11 8 7 6 6 6 5 5 7 7 6 6 5 5 6 5 4 5
1 1 1 1 1 1 1 1 0 1 1 1 4 5 3 1 2 5 8 9 9 10 8 8 7 9 5 9 9 7 9 9 14 11 11 12 12 9 6 6 5 5 5 5 5 5 5 5 5 4 4 4 4 4
1 1 1 1 1 1 1 1 1 1 1 3 4 3 2 4 6 9 10 8 9 11 8 8 7 7 6 5 9 8 11 10 14 8 11 14 11 7 6 6 5 4 4 5 4 4 4 4 4 4 4 4 4 3
1 1 1 1 1 1 1 1 1 1 1 0 3 5 6 6 12 13 14 12 11 7 7 7 9 7 6 6 8 10 12 13 8 11 13 11 8 7 6 5 5 4 4 4 4 4 4 4 3 3 4 3 3 3
1 1 1 1 1 1 1 1 1 1 1 4 6 12 9 10 9 10 10 9 6 6 5 6 8 8 8 9 8 12 10 9 13 15 14 10 8 7 6 5 5 5 5 5 4 4 4 4 4 3 3 3 3 3
1 1 2 1 1 2 2 1 1 -0 2 5 6 12 8 6 5 5 6 6 6 5 5 7 8 7 8 9 8 9 11 14 13 14 10 8 7 6 5 5 4 4 4 4 4 4 3 3 4 4 3 3 3 3
1 1 -0 1 1 2 2 1 -0 0 2 4 5 6 5 6 6 6 6 5 4 4 4 5 7 9 9 9 11 12 13 15 12 9 7 6 6 5 5 4 4 3 4 4 3 3 3 3 3 3 2 2 2 2
2 0 1 1 1 1 1 0 1 3 4 5 6 4 5 6 6 6 5 5 3 5 8 7 10 11 8 11 13 10 12 10 8 7 6 5 5 5 4 4 4 4 4 4 4 3 3 2 2 2 3 2 2 2
0 -1 0 1 1 0 -0 0 2 3 5 4 6 5 5 4 5 4 4 3 4 5 6 7 6 10 11 13 12 9 8 7 6 6 5 5 4 3 3 4 3 3 3 3 3 3 3 3 3 3 2 1 1 2
1 1 1 1 1 2 2 2 2 5 5 4 4 4 4 4 3 3 3 3 3 3 4 6 8 10 10 8 8 7 6 6 6 5 4 3 3 3 4 3 3 3 2 2 3 3 2 2 2 2 2 2 3 2
3 1 1 1 1 2 4 3 1 4 6 5 3 5 4 5 4 3 4 4 4 5 7 8 8 7 7 6 5 5 4 4 5 6 5 4 4 3 2 3 3 3 2 2 2 4 2 2 2 2 2 2 2 2
2 -0 1 -0 0 1 3 4 4 4 4 5 4 5 6 5 5 5 6 4 6 8 8 7 6 5 3 3 3 3 3 3 4 4 4 5 3 2 2 2 2 2 3 3 3 3 3 3 3 3 3 3 3 2
-0 1 0 -1 2 2 3 2 3 3 4 5 5 4 6 7 7 7 4 6 7 6 5 4 4 3 3 4 3 2 2 2 2 3 4 3 3 3 3 2 2 3 3 3 3 3 3 3 3 3 3 3 3 3
1 1 1 2 5 6 7 2 5 5 7 6 5 7 7 7 6 4 7 6 5 3 3 3 3 2 3 2 2 2 2 2 3 3 2 3 2 2 2 2 2 3 3 3 3 3 3 5 4 3 3 3 3 4
3 2 5 5 5 8 4 5 4 6 5 6 7 8 7 6 4 6 8 6 4 3 3 3 3 3 2 2 3 3 3 3 3 2 3 3 4 3 3 3 3 3 3 3 4 4 4 4 5 3 3 4 4 4
7 7 6 10 4 6 7 6 6 7 8 7 8 7 6 5 7 8 9 7 4 4 3 3 3 3 4 4 4 4 3 5 5 5 4 4 4 4 4 4 4 4 4 5 5 5 5 4 4 4 4 4 5 5
11 6 9 6 6 7 6 8 7 7 7 7 7 6 6 7 9 10 8 7 6 4 4 4 4 4 5 5 5 6 6 5 5 6 5 4 4 5 5 6 6 6 5 5 4 5 4 4 4 4 4 4 6 5
10 7 5 3 4 5 6 6 5 7 8 9 7 7 7 11 10 8 6 5 4 3 3 3 3 4 5 5 4 4 4 4 5 5 4 3 4 4 5 6 7 6 5 5 5 5 5 6 6 6 6 6 6 5
4 5 7 5 5 5 7 7 7 7 7 5 6 8 9 9 9 5 4 2 2 2 2 2 2 3 4 4 4 5 5 5 5 5 5 5 5 5 5 5 5 7 5 5 6 5 6 6 6 6 6 6 5 5
6 4 5 6 6 5 6 6 7 5 4 4 7 8 7 5 3 2 2 1 1 1 2 4 3 3 3 3 4 4 4 5 6 7 8 8 7 6 5 4 4 4 4 4 6 6 5 5 5 5 5 5 5 5
5 4 7 6 6 7 6 4 4 3 3 3 3 4 4 3 1 0 1 2 2 3 3 3 3 4 5 5 5 5 4 4 5 7 9 8 7 6 5 5 5 5 5 5 5 5 5 5 5 5 5 6 6 6
3 3 5 5 6 4 4 3 2 2 3 3 3 4 5 4 2 1 2 2 2 2 3 4 4 4 5 5 6 6 7 5 5 6 7 7 6 6 5 5 5 5 5 5 5 5 6 6 6 6 6 7 7 7
3 4 5 6 6 3 3 3 4 5 4 5 4 3 4 4 5 3 2 2 3 4 5 4 5 5 4 4 4 5 6 5 6 6 6 7 7 6 6 5 5 5 5 5 6 6 6 6 6 7 7 7 7 7
4 4 4 4 5 5 4 5 5 6 5 5 4 3 4 5 6 4 2 2 3 3 4 4 4 4 4 4 5 5 5 5 7 9 9 9 10 9 7 6 6 6 6 6 6 6 7 7 7 7 6 7 7 6